Weather History for Estherville, IA

Change the Weather History Date:

Saturday, October 13, 2012

  Actual Average Record
Temperature  
Mean Temperature 60 °F 49 °F  
Max Temperature 73 °F 61 °F 88 °F (1975)
Min Temperature 47 °F 37 °F 24 °F (1979)
Degree Days  
Heating Degree Days 5 16  
Month to date heating degree days 250 179  
Since 1 July heating degree days 447 387  
Cooling Degree Days 0 0  
Month to date cooling degree days 0 4  
Year to date cooling degree days 886 591  
Growing Degree Days 9 (Base 50)    
Moisture  
Dew Point 51 °F    
Average Humidity 79    
Maximum Humidity 100    
Minimum Humidity 57    
Precipitation  
Precipitation 0.00 in 0.07 in 0.61 in (2001)
Month to date precipitation 0.07 1.20  
Sea Level Pressure  
Sea Level Pressure 29.75 in    
Wind  
Wind Speed 12 mph (South)    
Max Wind Speed 23 mph    
Max Gust Speed 29 mph    
Visibility 6 miles    
Events      
T = Trace of Precipitation, MM = Missing Value Source: NWS Daily Summary

Daily Weather History Graph

Daily Weather History Graph

Search for Another Location

Airport:

Trip Planner

Search our weather history database for the weather conditions in past years. The results will help you decide how hot, cold, wet, or windy it might be!

Date:

Astronomy

Oct. 13, 2012 Rise Set
Actual Time 7:31 AM CDT 6:38 PM CDT
Civil Twilight 7:02 AM CDT 7:07 PM CDT
Nautical Twilight 6:29 AM CDT 7:40 PM CDT
Astronomical Twilight 5:56 AM CDT 8:13 PM CDT
Moon 5:19 AM CDT (10/13) 5:24 PM CDT (10/13)
Length of Visible Light 12h 04m
Length of Day
11h 07m
Waning Crescent, 5% of the Moon is Illuminated
Oct 13
Waning Crescent
Oct 15
New
Oct 21
First Quarter
Oct 29
Full
Nov 6
Last Quarter

Hourly Weather History & Observations

Time (CDT) Temp. Windchill Dew Point Humidity Pressure Visibility Wind Dir Wind Speed Gust Speed Precip Events Conditions
12:52 AM 50.0 °F - 39.9 °F 68% 29.99 in 10.0 mi South 17.3 mph - N/A   Overcast
3:19 AM 46.4 °F 40.7 °F 44.6 °F 93% 29.90 in 3.0 mi South 12.7 mph - N/A   Overcast
3:21 AM 46.4 °F 41.1 °F 44.6 °F 93% 29.90 in 2.5 mi South 11.5 mph - N/A   Overcast
3:44 AM 46.4 °F 41.5 °F 44.6 °F 93% 29.89 in 3.0 mi South 10.4 mph - N/A   Overcast
4:13 AM 46.4 °F 40.7 °F 44.6 °F 93% 29.88 in 3.0 mi South 12.7 mph - N/A   Overcast
4:35 AM 46.4 °F 41.1 °F 44.6 °F 93% 29.86 in 2.5 mi South 11.5 mph - N/A   Overcast
5:22 AM 48.2 °F - 46.4 °F 93% 29.83 in 2.5 mi SSE 12.7 mph - N/A   Overcast
5:52 AM 48.0 °F - 46.9 °F 96% 29.86 in 2.0 mi South 15.0 mph - N/A   Overcast
6:28 AM 48.2 °F - 46.4 °F 93% 29.83 in 3.0 mi South 16.1 mph - N/A   Overcast
7:52 AM 48.9 °F - 48.0 °F 97% 29.78 in 5.0 mi SSE 9.2 mph - N/A   Overcast
8:09 AM 50.0 °F - 48.2 °F 94% 29.76 in 4.0 mi SSE 6.9 mph - N/A   Overcast
9:52 AM 53.1 °F - 51.1 °F 93% 29.76 in 4.0 mi South 10.4 mph - N/A   Overcast
10:52 AM 54.0 °F - 52.0 °F 93% 29.74 in 4.0 mi SSE 8.1 mph - N/A   Overcast
11:31 AM 59.0 °F - 55.4 °F 88% 29.71 in 8.0 mi South 11.5 mph - N/A   Overcast
11:52 AM 62.1 °F - 57.0 °F 84% 29.70 in 10.0 mi South 12.7 mph 20.7 mph N/A   Overcast
12:52 PM 66.9 °F - 57.9 °F 73% 29.67 in 10.0 mi SSW 20.7 mph - N/A   Overcast
1:00 PM 68.0 °F - 57.2 °F 68% 29.67 in 10.0 mi SSW 20.7 mph 25.3 mph N/A   Overcast
1:52 PM 70.0 °F - 57.0 °F 63% 29.65 in 10.0 mi SSW 16.1 mph 21.9 mph N/A   Mostly Cloudy
2:11 PM 71.6 °F - 57.2 °F 60% 29.65 in 10.0 mi SSW 12.7 mph 21.9 mph N/A   Scattered Clouds
2:18 PM 71.6 °F - 57.2 °F 60% 29.65 in 10.0 mi SW 16.1 mph 24.2 mph N/A   Mostly Cloudy
2:33 PM 71.6 °F - 57.2 °F 60% 29.64 in 10.0 mi SW 16.1 mph 24.2 mph N/A   Scattered Clouds
2:52 PM 72.0 °F - 57.0 °F 59% 29.64 in 10.0 mi SW 17.3 mph 24.2 mph N/A   Mostly Cloudy
3:52 PM 72.0 °F - 55.9 °F 57% 29.64 in 10.0 mi WSW 16.1 mph - N/A   Overcast
4:17 PM 69.8 °F - 55.4 °F 60% 29.65 in 8.0 mi NW 12.7 mph - N/A   Overcast
4:52 PM 70.0 °F - 55.9 °F 61% 29.64 in 8.0 mi WNW 9.2 mph - N/A   Overcast
9:52 PM 55.9 °F - 51.1 °F 84% 29.71 in 10.0 mi NE 9.2 mph - N/A   Mostly Cloudy
10:52 PM 54.0 °F - 51.1 °F 90% 29.72 in 7.0 mi North 9.2 mph - N/A   Clear
11:05 PM 53.6 °F - 51.8 °F 94% 29.70 in 6.0 mi North 8.1 mph - N/A   Scattered Clouds
11:13 PM 53.6 °F - 51.8 °F 94% 29.70 in 6.0 mi North 9.2 mph - N/A   Mostly Cloudy
11:26 PM 53.6 °F - 51.8 °F 94% 29.70 in 1.8 mi NE 10.4 mph - N/A   Overcast
11:47 PM 53.6 °F - 53.6 °F 100% 29.70 in 3.0 mi NNE 15.0 mph - N/A   Overcast